M I D A S
Marine Information and Data Acquisition System
Tripno 1828 of the Zeeleeuw from 2009-12-17 07:39:48 to 2009-12-17 15:53:17
Back to CruiseResearch ActivitiesStationsMapUnderway DataData graphs

EquipmentUnitsComments
TimeDGPSUTC
LatitudeDGPSDM.mWGS84
LongitudeDGPSDM.mWGS84
SpeedMeteo Stationm/sRelative wind speed
DirectionMeteo StationdegRelative wind direction
TemperatureMeteo Stationdeg CelciusAir temperature
PressureMeteo StationPaAtmospheric pressure
HumidityMeteo Station%Relative humidity
Missing or incorrect values are displayed as -999
Metereological data collected by the RV Zeeleeuw from 2009-12-17 07:59:56 to 2009-12-17 16:00:49
Time Latitude Longitude Speed Direction Temperature Pressure Humidity
2009-12-17 08:01 51°13.674 2°55.905 3.1 22 -0.8 100450 34
2009-12-17 08:02 51°13.695 2°55.817 1.8 21 -0.8 100460 37
2009-12-17 08:03 51°13.744 2°55.723 2.6 16 -0.8 100460 38
2009-12-17 08:04 51°13.812 2°55.646 -999 39 -0.8 100470 37
2009-12-17 08:05 51°13.891 2°55.632 0.1 302 -0.8 100470 37
2009-12-17 08:06 51°13.937 2°55.659 0.9 309 -0.8 100470 35
2009-12-17 08:07 51°13.944 2°55.635 2.6 303 -0.8 100470 39
2009-12-17 08:08 51°14.002 2°55.554 1.9 309 -0.8 100470 40
2009-12-17 08:09 51°14.112 2°55.431 0.7 303 -0.7 100470 35
2009-12-17 08:10 51°14.232 2°55.298 1.7 304 -0.7 100460 38
2009-12-17 08:11 51°14.333 2°55.12 4.7 307 -0.7 100460 35
2009-12-17 08:12 51°14.393 2°54.87 7.2 307 -0.7 100460 39
2009-12-17 08:13 51°14.339 2°54.582 9.4 309 -0.6 100440 39
2009-12-17 08:14 51°14.255 2°54.293 7.8 304 -0.6 100430 37
2009-12-17 08:15 51°14.168 2°54.003 9 310 -0.5 100450 36
2009-12-17 08:16 51°14.08 2°53.711 10.3 304 -0.6 100460 36
2009-12-17 08:17 51°13.993 2°53.416 9.4 309 -0.6 100450 35
2009-12-17 08:18 51°13.908 2°53.117 9.5 307 -0.6 100420 39
2009-12-17 08:19 51°13.82 2°52.816 10.5 310 -0.6 100430 39
2009-12-17 08:20 51°13.732 2°52.515 8.2 306 -0.5 100430 36
2009-12-17 08:21 51°13.644 2°52.214 9.3 309 -0.5 100430 40
2009-12-17 08:22 51°13.545 2°51.921 7 310 -0.6 100440 40
2009-12-17 08:23 51°13.44 2°51.633 7.4 303 -0.5 100450 36
2009-12-17 08:24 51°13.335 2°51.351 7.9 311 -0.5 100420 39
2009-12-17 08:25 51°13.233 2°51.069 7.7 311 -0.5 100440 36
2009-12-17 08:26 51°13.132 2°50.787 7 308 -0.5 100420 35
2009-12-17 08:27 51°13.03 2°50.504 6.7 305 -0.5 100430 38
2009-12-17 08:28 51°12.929 2°50.222 9.2 308 -0.4 100440 38
2009-12-17 08:29 51°12.827 2°49.941 8.6 309 -0.5 100440 36
2009-12-17 08:30 51°12.727 2°49.659 9.3 309 -0.5 100430 39
2009-12-17 08:31 51°12.625 2°49.376 9.1 302 -0.5 100430 38
2009-12-17 08:32 51°12.523 2°49.091 8.6 309 -0.5 100450 38
2009-12-17 08:33 51°12.421 2°48.808 10 306 -0.5 100440 37
2009-12-17 08:34 51°12.319 2°48.527 8.7 311 -0.5 100440 38
2009-12-17 08:35 51°12.218 2°48.248 9.7 306 -0.5 100440 40
2009-12-17 08:36 51°12.116 2°47.969 7.5 308 -0.5 100440 38
2009-12-17 08:37 51°12.015 2°47.687 7.1 303 -0.5 100430 38
2009-12-17 08:38 51°11.911 2°47.409 9 310 -0.5 100430 35
2009-12-17 08:39 51°11.809 2°47.132 8.8 305 -0.5 100440 39
2009-12-17 08:40 51°11.719 2°46.847 7.1 304 -0.5 100440 37
2009-12-17 08:41 51°11.693 2°46.534 7.2 309 -0.5 100430 38
2009-12-17 08:42 51°11.678 2°46.213 6.2 306 -0.5 100430 35
2009-12-17 08:43 51°11.669 2°45.893 5.4 306 -0.5 100430 37
2009-12-17 08:44 51°11.661 2°45.569 5.4 304 -0.4 100430 40
2009-12-17 08:45 51°11.655 2°45.245 6 307 -0.5 100430 39
2009-12-17 08:46 51°11.644 2°44.925 6.7 306 -0.4 100430 36
2009-12-17 08:47 51°11.634 2°44.608 7.2 310 -0.4 100440 39
2009-12-17 08:48 51°11.626 2°44.295 5.1 309 -0.4 100430 40
2009-12-17 08:49 51°11.62 2°43.987 6.5 305 -0.3 100440 36
2009-12-17 08:50 51°11.612 2°43.683 5.6 309 -0.3 100420 39
2009-12-17 08:51 51°11.604 2°43.38 6.7 306 -0.2 100430 40
2009-12-17 08:52 51°11.596 2°43.075 5.6 305 -0.2 100440 39
2009-12-17 08:53 51°11.587 2°42.769 6.6 304 -0.2 100440 39
2009-12-17 08:54 51°11.578 2°42.465 5.9 305 -0.2 100440 40
2009-12-17 08:55 51°11.567 2°42.161 6.5 305 -0.2 100430 40
2009-12-17 08:56 51°11.547 2°41.858 6.7 308 -0.1 100440 39
2009-12-17 08:57 51°11.532 2°41.579 4.9 309 -0.1 100450 35
2009-12-17 08:58 51°11.577 2°41.478 2 43 -0.1 100450 42
2009-12-17 08:59 51°11.619 2°41.409 5.1 304 -0.1 100450 36
2009-12-17 09:00 51°11.593 2°41.315 6.3 309 -0.1 100440 36
2009-12-17 09:01 51°11.531 2°41.294 7.4 333 -999 100460 40
2009-12-17 09:02 51°11.438 2°41.32 7.6 330 -0.1 100450 37
2009-12-17 09:03 51°11.357 2°41.31 6.9 324 -0.1 100440 39
2009-12-17 09:04 51°11.288 2°41.263 6.6 305 -999 100450 36
2009-12-17 09:05 51°11.235 2°41.185 6.4 307 -0.1 100450 39
2009-12-17 09:06 51°11.185 2°41.106 5.8 308 -0.1 100450 35
2009-12-17 09:07 51°11.136 2°41.031 6.4 304 -999 100450 36
2009-12-17 09:08 51°11.091 2°40.958 5.5 311 -999 100450 36
2009-12-17 09:09 51°11.048 2°40.889 5.1 304 -0.1 100440 37
2009-12-17 09:10 51°11.007 2°40.814 6.3 308 -0.1 100450 37
2009-12-17 09:11 51°10.968 2°40.737 6.1 311 -0.1 100460 41
2009-12-17 09:12 51°10.928 2°40.662 4.7 303 -0.1 100460 39
2009-12-17 09:13 51°10.889 2°40.588 6.2 303 -0.1 100460 34
2009-12-17 09:14 51°10.85 2°40.512 5.1 308 -0.1 100440 40
2009-12-17 09:15 51°10.81 2°40.435 5.7 311 -0.1 100440 38
2009-12-17 09:16 51°10.768 2°40.356 4.3 311 -0.1 100440 37
2009-12-17 09:17 51°10.728 2°40.269 6.4 309 -0.1 100430 40
2009-12-17 09:18 51°10.693 2°40.176 5.3 311 -0.1 100450 38
2009-12-17 09:19 51°10.659 2°40.083 5.8 310 -0.2 100450 40
2009-12-17 09:20 51°10.622 2°39.993 4.6 306 -0.1 100450 35
2009-12-17 09:21 51°10.587 2°39.904 4.4 310 -999 100440 37
2009-12-17 09:22 51°10.555 2°39.82 4.1 304 -999 100460 35
2009-12-17 09:23 51°10.528 2°39.734 5.2 303 -999 100440 41
2009-12-17 09:24 51°10.504 2°39.648 4.1 304 -999 100450 35
2009-12-17 09:25 51°10.476 2°39.567 3.7 310 -999 100440 35
2009-12-17 09:26 51°10.444 2°39.486 4.7 303 -999 100440 36
2009-12-17 09:27 51°10.411 2°39.408 4.6 304 -999 100440 40
2009-12-17 09:28 51°10.376 2°39.333 4 311 -999 100440 36
2009-12-17 09:29 51°10.34 2°39.257 4.5 309 -999 100440 38
2009-12-17 09:30 51°10.304 2°39.181 5 308 -999 100450 35
2009-12-17 09:31 51°10.267 2°39.106 4.6 308 -999 100440 40
2009-12-17 09:32 51°10.231 2°39.031 3.4 304 -999 100440 36
2009-12-17 09:33 51°10.194 2°38.957 4.3 305 -999 100440 35
2009-12-17 09:34 51°10.158 2°38.883 4.2 302 -999 100450 36
2009-12-17 09:35 51°10.12 2°38.81 3.7 309 -999 100440 35
2009-12-17 09:36 51°10.081 2°38.738 4.7 304 -999 100450 36
2009-12-17 09:37 51°10.042 2°38.668 3.9 309 -999 100440 34
2009-12-17 09:38 51°10.003 2°38.598 5 304 -999 100440 35
2009-12-17 09:39 51°9.964 2°38.529 5.2 307 -0.1 100440 35
2009-12-17 09:40 51°9.925 2°38.461 4.6 304 -999 100440 40
2009-12-17 09:41 51°9.89 2°38.385 3.5 311 -0.1 100440 36
2009-12-17 09:42 51°9.862 2°38.302 3.6 304 -999 100440 35
2009-12-17 09:43 51°9.845 2°38.214 2.7 304 0.1 100450 40
2009-12-17 09:44 51°9.844 2°38.131 2.9 311 0.1 100450 35
2009-12-17 09:45 51°9.856 2°38.057 2.1 308 0.1 100450 36
2009-12-17 09:46 51°9.878 2°37.99 2.4 50 0.1 100450 40
2009-12-17 09:47 51°9.926 2°37.919 1.5 50 0.1 100450 37
2009-12-17 09:48 51°9.959 2°37.879 2.2 52 0.1 100440 41
2009-12-17 09:49 51°9.976 2°37.848 3 54 0.1 100450 36
2009-12-17 09:50 51°9.986 2°37.822 3.7 54 0.1 100450 35
2009-12-17 09:51 51°9.99 2°37.8 4.3 54 0.1 100440 41
2009-12-17 09:52 51°9.99 2°37.783 2.8 308 0.2 100440 39
2009-12-17 09:53 51°9.985 2°37.774 2.5 304 0.1 100440 35
2009-12-17 09:54 51°9.981 2°37.769 3.8 310 0.2 100450 35
2009-12-17 09:55 51°9.979 2°37.767 3.5 309 0.2 100450 38
2009-12-17 09:56 51°9.978 2°37.766 2.7 307 0.3 100440 35
2009-12-17 09:57 51°9.977 2°37.765 3 307 0.4 100450 41
2009-12-17 09:58 51°9.977 2°37.763 3.8 310 0.3 100450 39
2009-12-17 09:59 51°9.975 2°37.764 2.2 310 0.3 100450 37
2009-12-17 10:00 51°9.972 2°37.765 3.1 305 0.3 100450 40
2009-12-17 10:01 51°9.969 2°37.768 2.4 303 0.4 100450 37
2009-12-17 10:02 51°9.967 2°37.772 2.2 310 0.3 100430 35
2009-12-17 10:03 51°9.966 2°37.778 1.7 304 0.3 100450 42
2009-12-17 10:04 51°9.964 2°37.784 2.1 307 0.3 100450 37
2009-12-17 10:05 51°9.962 2°37.791 1.8 309 0.3 100450 42
2009-12-17 10:06 51°9.96 2°37.8 1.6 307 0.3 100450 42
2009-12-17 10:07 51°9.959 2°37.808 2.1 306 0.3 100440 42
2009-12-17 10:08 51°9.958 2°37.817 2.8 304 0.3 100450 42
2009-12-17 10:09 51°9.958 2°37.827 2.3 307 0.4 100460 35
2009-12-17 10:10 51°9.957 2°37.838 3.3 309 0.4 100450 36
2009-12-17 10:11 51°9.955 2°37.851 3.9 309 0.4 100450 37
2009-12-17 10:12 51°9.953 2°37.862 3.2 310 0.4 100440 37
2009-12-17 10:13 51°9.951 2°37.872 3 304 0.3 100460 35
2009-12-17 10:14 51°9.95 2°37.879 3.1 307 0.3 100440 35
2009-12-17 10:15 51°9.948 2°37.886 3.3 310 0.3 100460 39
2009-12-17 10:16 51°9.946 2°37.894 2.6 309 0.4 100450 41
2009-12-17 10:17 51°9.944 2°37.903 2.8 306 0.4 100450 35
2009-12-17 10:18 51°9.941 2°37.895 2 305 0.4 100450 36
2009-12-17 10:19 51°9.962 2°37.847 -999 53 0.4 100440 39
2009-12-17 10:20 51°10.018 2°37.884 1.3 7 0.4 100440 39
2009-12-17 10:21 51°10.083 2°38.055 5.2 349 0.3 100450 42
2009-12-17 10:22 51°10.119 2°38.338 5.9 343 0.3 100420 40
2009-12-17 10:23 51°10.146 2°38.625 4.4 345 0.3 100440 37
2009-12-17 10:24 51°10.196 2°38.914 6.5 348 0.3 100440 41
2009-12-17 10:25 51°10.25 2°39.202 5 343 0.2 100420 38
2009-12-17 10:26 51°10.307 2°39.491 5.3 344 0.2 100430 38
2009-12-17 10:27 51°10.364 2°39.78 5.4 343 0.2 100440 35
2009-12-17 10:28 51°10.419 2°40.072 5.8 345 0.2 100440 38
2009-12-17 10:29 51°10.477 2°40.363 5.6 343 0.2 100440 36
2009-12-17 10:30 51°10.534 2°40.653 6 346 0.2 100420 36
2009-12-17 10:31 51°10.59 2°40.944 5.2 347 0.2 100440 37
2009-12-17 10:32 51°10.648 2°41.232 5.1 341 0.1 100440 36
2009-12-17 10:33 51°10.71 2°41.529 5.9 344 0.1 100430 40
2009-12-17 10:34 51°10.774 2°41.82 4.1 344 0.1 100440 38
2009-12-17 10:35 51°10.844 2°42.107 5.7 345 -999 100430 37
2009-12-17 10:36 51°10.907 2°42.396 4.7 346 -0.1 100420 36
2009-12-17 10:37 51°10.967 2°42.688 5.5 342 -0.1 100450 40
2009-12-17 10:38 51°11.024 2°42.981 5 344 -0.1 100440 42
2009-12-17 10:39 51°11.075 2°43.277 6.4 340 -0.1 100450 41
2009-12-17 10:40 51°11.116 2°43.578 4.9 340 -0.2 100460 37
2009-12-17 10:41 51°11.155 2°43.881 5.5 343 -0.3 100460 40
2009-12-17 10:42 51°11.19 2°44.185 5.5 340 -0.3 100430 38
2009-12-17 10:43 51°11.231 2°44.49 4.8 338 -0.3 100450 37
2009-12-17 10:44 51°11.274 2°44.794 4.7 342 -0.4 100430 41
2009-12-17 10:45 51°11.317 2°45.1 4.2 342 -0.4 100430 40
2009-12-17 10:46 51°11.405 2°45.375 4.6 339 -0.4 100430 37
2009-12-17 10:47 51°11.506 2°45.645 4.7 342 -0.4 100440 36
2009-12-17 10:48 51°11.598 2°45.924 5.4 347 -0.5 100440 40
2009-12-17 10:49 51°11.687 2°46.208 5.2 342 -0.5 100430 35
2009-12-17 10:50 51°11.777 2°46.491 5.4 345 -0.5 100440 36
2009-12-17 10:51 51°11.862 2°46.776 5.2 351 -0.6 100450 36
2009-12-17 10:52 51°11.951 2°47.06 6.4 352 -0.6 100420 35
2009-12-17 10:53 51°12.04 2°47.341 5 352 -0.6 100420 36
2009-12-17 10:54 51°12.129 2°47.622 5.2 350 -0.6 100400 37
2009-12-17 10:55 51°12.218 2°47.906 5.1 351 -0.6 100400 36
2009-12-17 10:56 51°12.308 2°48.192 4.6 348 -0.6 100390 35
2009-12-17 10:57 51°12.397 2°48.479 5.7 354 -0.6 100420 37
2009-12-17 10:58 51°12.485 2°48.767 4 351 -0.6 100410 40
2009-12-17 10:59 51°12.576 2°49.053 4.7 351 -0.6 100420 35
2009-12-17 11:00 51°12.667 2°49.339 3.4 350 -0.6 100420 35
2009-12-17 11:01 51°12.759 2°49.623 3.7 349 -0.6 100410 41
2009-12-17 11:02 51°12.85 2°49.909 4.2 344 -0.7 100420 41
2009-12-17 11:03 51°12.942 2°50.197 4.5 350 -0.7 100410 40
2009-12-17 11:04 51°13.042 2°50.477 4.5 351 -0.7 100400 40
2009-12-17 11:05 51°13.148 2°50.75 3.8 358 -0.7 100420 35
2009-12-17 11:06 51°13.253 2°51.022 3.9 351 -0.8 100410 35
2009-12-17 11:07 51°13.36 2°51.294 4.2 353 -0.7 100420 35
2009-12-17 11:08 51°13.466 2°51.571 2.9 352 -0.7 100430 40
2009-12-17 11:09 51°13.575 2°51.845 2.6 357 -0.7 100430 41
2009-12-17 11:10 51°13.684 2°52.121 2.9 350 -0.7 100400 36
2009-12-17 11:11 51°13.791 2°52.396 5.1 353 -0.8 100410 41
2009-12-17 11:12 51°13.899 2°52.672 5.9 349 -0.7 100400 41
2009-12-17 11:13 51°14.006 2°52.95 3.8 352 -0.8 100410 40
2009-12-17 11:14 51°14.119 2°53.223 5 1 -0.8 100390 35
2009-12-17 11:15 51°14.24 2°53.488 2.9 357 -0.7 100400 41
2009-12-17 11:16 51°14.363 2°53.755 4.1 355 -0.7 100400 37
2009-12-17 11:17 51°14.498 2°54.004 2.3 352 -0.7 100400 35
2009-12-17 11:18 51°14.671 2°54.18 0.3 358 -0.7 100400 35
2009-12-17 11:19 51°14.849 2°54.342 0.3 354 -0.7 100420 38
2009-12-17 11:20 51°15.028 2°54.506 3.1 356 -0.6 100420 35
2009-12-17 11:21 51°15.206 2°54.677 0.2 352 -0.6 100420 37
2009-12-17 11:22 51°15.381 2°54.85 2.9 344 -0.5 100420 38
2009-12-17 11:23 51°15.531 2°55.065 2.7 359 -0.5 100400 35
2009-12-17 11:24 51°15.634 2°55.355 4.6 350 -0.5 100410 41
2009-12-17 11:25 51°15.717 2°55.662 4.7 354 -0.5 100410 36
2009-12-17 11:26 51°15.809 2°55.965 4.3 356 -0.4 100400 41
2009-12-17 11:27 51°15.919 2°56.256 3.1 -999 -0.4 100400 35
2009-12-17 11:28 51°16.034 2°56.542 4.4 359 -0.4 100380 36
2009-12-17 11:29 51°16.148 2°56.829 3.5 4 -0.4 100390 36
2009-12-17 11:30 51°16.261 2°57.122 3.9 9 -0.4 100380 36
2009-12-17 11:31 51°16.375 2°57.414 2.3 4 -0.4 100380 35
2009-12-17 11:32 51°16.494 2°57.701 4.5 354 -0.3 100400 35
2009-12-17 11:33 51°16.615 2°57.988 2.8 354 -0.3 100390 35
2009-12-17 11:34 51°16.737 2°58.277 3.8 358 -0.4 100410 35
2009-12-17 11:35 51°16.853 2°58.575 4.4 349 -0.4 100400 37
2009-12-17 11:36 51°16.97 2°58.872 2.9 349 -0.5 100410 40
2009-12-17 11:37 51°17.091 2°59.167 4.3 345 -0.5 100400 40
2009-12-17 11:38 51°17.211 2°59.462 4.9 347 -0.5 100410 42
2009-12-17 11:39 51°17.332 2°59.757 3.4 351 -0.4 100400 36
2009-12-17 11:40 51°17.45 3°0.057 5 350 -0.5 100390 41
2009-12-17 11:41 51°17.573 3°0.353 3.1 356 -0.5 100380 36
2009-12-17 11:42 51°17.694 3°0.65 3.1 351 -0.4 100400 41
2009-12-17 11:43 51°17.811 3°0.949 3.4 346 -0.4 100390 40
2009-12-17 11:44 51°17.936 3°1.242 4.3 350 -0.4 100380 41
2009-12-17 11:45 51°18.065 3°1.533 4.6 354 -0.5 100380 41
2009-12-17 11:46 51°18.193 3°1.826 4.3 356 -0.5 100380 35
2009-12-17 11:47 51°18.322 3°2.12 4.5 355 -0.5 100380 35
2009-12-17 11:48 51°18.449 3°2.416 5.1 351 -0.4 100380 39
2009-12-17 11:49 51°18.578 3°2.71 4.7 348 -0.4 100380 40
2009-12-17 11:50 51°18.706 3°3.006 1.8 348 -0.4 100370 35
2009-12-17 11:51 51°18.834 3°3.301 4.8 354 -0.3 100380 35
2009-12-17 11:52 51°18.96 3°3.6 3.4 350 -0.3 100360 35
2009-12-17 11:53 51°19.087 3°3.898 3.7 354 -0.3 100360 35
2009-12-17 11:54 51°19.223 3°4.182 4.2 359 -0.3 100370 41
2009-12-17 11:55 51°19.387 3°4.399 2.2 287 -0.3 100380 35
2009-12-17 11:56 51°19.585 3°4.52 0.2 328 -0.4 100380 38
2009-12-17 11:57 51°19.783 3°4.623 0.3 283 -0.3 100370 38
2009-12-17 11:58 51°19.984 3°4.734 0.1 334 -0.2 100390 38
2009-12-17 11:59 51°20.185 3°4.848 0.1 334 -0.2 100380 38
2009-12-17 12:00 51°20.382 3°4.963 1.2 284 -0.2 100380 38
2009-12-17 12:01 51°20.575 3°5.08 0.6 349 -0.2 100380 39
2009-12-17 12:02 51°20.744 3°5.152 1.4 312 -0.1 100380 38
2009-12-17 12:03 51°20.795 3°5.127 3.4 308 -0.1 100370 35
2009-12-17 12:04 51°20.803 3°5.087 4.7 304 -0.1 100370 41
2009-12-17 12:05 51°20.814 3°4.998 6 305 -999 100370 35
2009-12-17 12:06 51°20.853 3°4.923 2.5 310 -999 100370 41
2009-12-17 12:07 51°20.91 3°4.888 2.8 305 -999 100380 41
2009-12-17 12:08 51°20.976 3°4.888 0.1 55 0.1 100400 36
2009-12-17 12:09 51°21.047 3°4.946 -999 77 0.1 100380 38
2009-12-17 12:10 51°21.105 3°5.04 1 45 0.2 100390 42
2009-12-17 12:11 51°21.158 3°5.141 0.5 79 0.1 100380 38
2009-12-17 12:12 51°21.209 3°5.239 2 38 -999 100370 36
2009-12-17 12:13 51°21.246 3°5.358 2.6 16 -999 100380 36
2009-12-17 12:14 51°21.259 3°5.488 3.3 4 -999 100370 38
2009-12-17 12:15 51°21.258 3°5.616 4.3 354 -999 100350 41
2009-12-17 12:16 51°21.245 3°5.731 3 345 -999 100360 39
2009-12-17 12:17 51°21.222 3°5.83 3.9 339 -0.1 100360 35
2009-12-17 12:18 51°21.196 3°5.925 4.1 343 -0.1 100360 41
2009-12-17 12:19 51°21.171 3°6.024 3.3 344 -0.2 100360 39
2009-12-17 12:20 51°21.148 3°6.126 3.7 346 -0.3 100360 35
2009-12-17 12:21 51°21.126 3°6.23 3.1 345 -0.3 100360 35
2009-12-17 12:22 51°21.106 3°6.336 4.3 345 -0.2 100360 37
2009-12-17 12:23 51°21.089 3°6.443 4.1 352 -0.2 100360 35
2009-12-17 12:24 51°21.074 3°6.552 3.8 357 -0.3 100360 35
2009-12-17 12:25 51°21.067 3°6.669 2.7 5 -0.3 100350 39
2009-12-17 12:26 51°21.07 3°6.793 3.3 3 -0.3 100340 37
2009-12-17 12:27 51°21.077 3°6.916 3.9 10 -0.3 100350 40
2009-12-17 12:28 51°21.095 3°7.038 2.6 14 -0.4 100350 36
2009-12-17 12:29 51°21.125 3°7.157 3.5 18 -0.4 100360 36
2009-12-17 12:30 51°21.163 3°7.271 3.3 23 -0.4 100350 35
2009-12-17 12:31 51°21.201 3°7.386 2.8 17 -0.3 100340 40
2009-12-17 12:32 51°21.24 3°7.501 2.4 15 -0.3 100340 34
2009-12-17 12:33 51°21.284 3°7.613 2.1 19 -0.3 100340 34
2009-12-17 12:34 51°21.33 3°7.719 2.1 35 -0.3 100330 37
2009-12-17 12:35 51°21.381 3°7.818 1.3 30 -0.3 100340 35
2009-12-17 12:36 51°21.43 3°7.906 1.7 31 -0.3 100330 36
2009-12-17 12:37 51°21.478 3°7.992 3.1 26 -0.2 100340 40
2009-12-17 12:38 51°21.52 3°8.086 2.7 29 -0.3 100340 35
2009-12-17 12:39 51°21.559 3°8.185 1.8 24 -0.3 100340 36
2009-12-17 12:40 51°21.596 3°8.286 2.2 8 -0.2 100330 38
2009-12-17 12:41 51°21.63 3°8.391 3.2 15 -0.2 100320 40
2009-12-17 12:42 51°21.659 3°8.498 4.8 14 -0.3 100340 34
2009-12-17 12:43 51°21.682 3°8.607 2.6 3 -0.2 100330 38
2009-12-17 12:44 51°21.701 3°8.715 3.4 1 -0.3 100330 35
2009-12-17 12:45 51°21.714 3°8.824 4.7 1 -0.3 100320 41
2009-12-17 12:46 51°21.728 3°8.931 4 357 -0.3 100320 35
2009-12-17 12:47 51°21.743 3°9.039 5.3 356 -0.2 100310 35
2009-12-17 12:48 51°21.75 3°9.155 4.9 349 -0.3 100310 36
2009-12-17 12:49 51°21.736 3°9.25 5.7 339 -0.3 100310 39
2009-12-17 12:50 51°21.735 3°9.313 4.3 343 -0.3 100310 35
2009-12-17 12:51 51°21.742 3°9.374 5 344 -0.4 100310 36
2009-12-17 12:52 51°21.755 3°9.435 3.9 345 -0.3 100310 39
2009-12-17 12:53 51°21.772 3°9.52 6 19 -0.3 100300 35
2009-12-17 12:54 51°21.825 3°9.609 2 49 -0.3 100320 37
2009-12-17 12:55 51°21.882 3°9.622 4 304 -0.1 100320 38
2009-12-17 12:56 51°21.886 3°9.578 6.5 305 -0.2 100310 37
2009-12-17 12:57 51°21.834 3°9.42 6.5 305 -0.1 100290 39
2009-12-17 12:58 51°21.794 3°9.186 6.8 306 -0.2 100280 40
2009-12-17 12:59 51°21.738 3°8.97 7.7 310 -0.1 100290 36
2009-12-17 13:00 51°21.657 3°8.781 9.7 306 -0.1 100290 37
2009-12-17 13:01 51°21.569 3°8.599 7.1 309 -0.1 100300 40
2009-12-17 13:02 51°21.48 3°8.419 9.2 305 -0.2 100290 37
2009-12-17 13:03 51°21.406 3°8.273 5.9 308 -0.1 100300 35
2009-12-17 13:04 51°21.379 3°8.24 4.7 310 -0.2 100310 37
2009-12-17 13:05 51°21.369 3°8.251 4.4 306 -0.2 100320 40
2009-12-17 13:06 51°21.371 3°8.269 5.5 311 -0.2 100310 41
2009-12-17 13:07 51°21.379 3°8.29 4.5 305 -0.2 100320 41
2009-12-17 13:08 51°21.391 3°8.313 3.8 303 -0.2 100330 35
2009-12-17 13:09 51°21.405 3°8.339 4.2 305 -0.2 100320 38
2009-12-17 13:10 51°21.423 3°8.369 4.4 310 -0.2 100320 37
2009-12-17 13:11 51°21.442 3°8.401 1.8 310 -0.2 100320 36
2009-12-17 13:12 51°21.462 3°8.438 2.6 310 -0.2 100320 36
2009-12-17 13:13 51°21.482 3°8.48 3.5 312 -0.2 100310 34
2009-12-17 13:14 51°21.499 3°8.523 3.3 55 -0.2 100310 37
2009-12-17 13:15 51°21.518 3°8.566 1.8 56 -0.2 100310 35
2009-12-17 13:16 51°21.584 3°8.614 0.1 23 -0.2 100310 38
2009-12-17 13:17 51°21.719 3°8.738 0.4 8 -0.1 100290 38
2009-12-17 13:18 51°21.894 3°8.897 1.1 355 -0.1 100300 36
2009-12-17 13:19 51°22.071 3°9.063 3.2 348 -0.1 100320 41
2009-12-17 13:20 51°22.244 3°9.252 0.2 350 -0.1 100300 38
2009-12-17 13:21 51°22.412 3°9.242 3.9 310 -0.2 100310 37
2009-12-17 13:22 51°22.549 3°9.094 2.2 308 -0.1 100310 34
2009-12-17 13:23 51°22.723 3°9.024 -999 305 -0.1 100310 41
2009-12-17 13:24 51°22.91 3°9.095 1 4 -0.1 100300 38
2009-12-17 13:25 51°23.051 3°9.346 3.8 4 -0.1 100300 35
2009-12-17 13:26 51°23.158 3°9.645 3.4 354 -999 100270 35
2009-12-17 13:27 51°23.273 3°9.932 4.5 6 -999 100260 38
2009-12-17 13:28 51°23.394 3°10.203 2.5 9 -999 100270 41
2009-12-17 13:29 51°23.554 3°10.395 1.7 14 -999 100290 35
2009-12-17 13:30 51°23.743 3°10.496 0.1 14 0.1 100280 38
2009-12-17 13:31 51°23.932 3°10.58 -999 9 0.2 100270 38
2009-12-17 13:32 51°24.124 3°10.668 -999 27 0.1 100280 38
2009-12-17 13:33 51°24.313 3°10.77 -999 35 0.1 100260 38
2009-12-17 13:34 51°24.501 3°10.867 -999 307 -999 100280 38
2009-12-17 13:35 51°24.694 3°10.933 -999 307 0.1 100280 38
2009-12-17 13:36 51°24.885 3°10.993 -999 326 0.2 100270 38
2009-12-17 13:37 51°25.073 3°11.066 -999 312 0.2 100270 38
2009-12-17 13:38 51°25.257 3°11.146 -999 307 0.2 100270 38
2009-12-17 13:39 51°25.446 3°11.23 -999 358 0.3 100270 38
2009-12-17 13:40 51°25.634 3°11.308 -999 311 0.4 100260 38
2009-12-17 13:41 51°25.817 3°11.384 0.2 53 0.4 100260 38
2009-12-17 13:42 51°26 3°11.443 -999 43 0.4 100260 38
2009-12-17 13:43 51°26.188 3°11.493 -999 26 0.5 100250 38
2009-12-17 13:44 51°26.377 3°11.544 -999 34 0.6 100250 38
2009-12-17 13:45 51°26.563 3°11.63 0.6 14 0.7 100250 38
2009-12-17 13:46 51°26.75 3°11.733 1.8 33 0.7 100250 38
2009-12-17 13:47 51°26.94 3°11.8 -999 27 0.6 100230 38
2009-12-17 13:48 51°27.094 3°11.693 7.6 305 0.6 100230 39
2009-12-17 13:49 51°27.153 3°11.453 6.6 311 0.6 100210 36
2009-12-17 13:50 51°27.156 3°11.188 12.3 308 0.7 100210 38
2009-12-17 13:51 51°27.114 3°10.941 10 305 0.6 100200 38
2009-12-17 13:52 51°27.056 3°10.709 9.2 311 0.6 100210 36
2009-12-17 13:53 51°26.993 3°10.475 10.2 303 0.6 100190 38
2009-12-17 13:54 51°26.928 3°10.241 10.5 303 0.6 100190 39
2009-12-17 13:55 51°26.865 3°10.003 10.4 309 0.6 100200 37
2009-12-17 13:56 51°26.804 3°9.762 9.8 306 0.7 100200 40
2009-12-17 13:57 51°26.74 3°9.524 9.8 306 0.7 100190 37
2009-12-17 13:58 51°26.678 3°9.284 12.1 303 0.8 100190 38
2009-12-17 13:59 51°26.614 3°9.047 10.2 302 0.7 100210 39
2009-12-17 14:00 51°26.549 3°8.811 10.2 308 0.7 100180 37
2009-12-17 14:01 51°26.485 3°8.576 10.4 307 0.7 100190 40
2009-12-17 14:02 51°26.421 3°8.346 10.4 304 0.7 100190 40
2009-12-17 14:03 51°26.36 3°8.121 12.7 309 0.7 100180 37
2009-12-17 14:04 51°26.296 3°7.892 11 310 0.6 100190 37
2009-12-17 14:05 51°26.233 3°7.667 11.3 306 0.6 100210 37
2009-12-17 14:06 51°26.171 3°7.442 10.3 311 0.6 100190 39
2009-12-17 14:07 51°26.112 3°7.207 9.7 309 0.6 100190 40
2009-12-17 14:08 51°26.051 3°6.978 11.8 305 0.7 100200 40
2009-12-17 14:09 51°25.986 3°6.743 11.4 309 0.7 100200 40
2009-12-17 14:10 51°25.921 3°6.518 12.7 309 0.6 100170 37
2009-12-17 14:11 51°25.848 3°6.296 12.1 303 0.6 100180 38
2009-12-17 14:12 51°25.775 3°6.078 9.9 306 0.6 100200 37
2009-12-17 14:13 51°25.715 3°5.849 11.1 306 0.6 100200 39
2009-12-17 14:14 51°25.671 3°5.614 10.6 307 0.6 100170 37
2009-12-17 14:15 51°25.633 3°5.372 11.3 308 0.6 100200 39
2009-12-17 14:16 51°25.594 3°5.129 10 310 0.7 100210 40
2009-12-17 14:17 51°25.552 3°4.891 9.5 309 0.7 100210 37
2009-12-17 14:18 51°25.512 3°4.651 11.7 310 0.7 100200 38
2009-12-17 14:19 51°25.47 3°4.408 10.8 308 0.7 100220 37
2009-12-17 14:20 51°25.429 3°4.17 10.4 310 0.7 100220 38
2009-12-17 14:21 51°25.387 3°3.938 11.5 304 0.7 100210 39
2009-12-17 14:22 51°25.337 3°3.708 12.6 309 0.8 100210 37
2009-12-17 14:23 51°25.238 3°3.529 12.3 306 0.7 100220 37
2009-12-17 14:24 51°25.129 3°3.364 12.9 306 0.7 100210 39
2009-12-17 14:25 51°25.017 3°3.2 12.6 310 0.8 100200 38
2009-12-17 14:26 51°24.913 3°3.034 12.6 305 0.8 100210 40
2009-12-17 14:27 51°24.803 3°2.867 12.6 308 0.7 100210 37
2009-12-17 14:28 51°24.67 3°2.746 12.3 325 0.8 100210 38
2009-12-17 14:29 51°24.514 3°2.703 13.3 327 0.8 100210 38
2009-12-17 14:30 51°24.355 3°2.673 14.4 323 0.7 100190 38
2009-12-17 14:31 51°24.207 3°2.595 11.7 303 0.5 100210 37
2009-12-17 14:32 51°24.064 3°2.498 12.8 309 0.5 100190 40
2009-12-17 14:33 51°23.93 3°2.381 12.3 304 0.6 100180 40
2009-12-17 14:34 51°23.804 3°2.236 13.2 307 0.6 100180 37
2009-12-17 14:35 51°23.678 3°2.095 13 306 0.6 100200 38
2009-12-17 14:36 51°23.552 3°1.948 11.8 303 0.5 100180 38
2009-12-17 14:37 51°23.423 3°1.806 11.9 308 0.6 100170 37
2009-12-17 14:38 51°23.292 3°1.668 13.2 305 0.5 100190 37
2009-12-17 14:39 51°23.165 3°1.537 13.7 305 0.6 100160 39
2009-12-17 14:40 51°23.038 3°1.398 12.4 309 0.5 100170 39
2009-12-17 14:41 51°22.911 3°1.258 13.2 311 0.6 100200 37
2009-12-17 14:42 51°22.784 3°1.118 12.2 323 0.6 100200 39
2009-12-17 14:43 51°22.654 3°0.981 11.7 305 0.6 100190 38
2009-12-17 14:44 51°22.528 3°0.846 12.9 321 0.5 100220 37
2009-12-17 14:45 51°22.403 3°0.703 12.2 305 0.5 100190 37
2009-12-17 14:46 51°22.273 3°0.574 11.5 324 0.6 100210 38
2009-12-17 14:47 51°22.146 3°0.434 12.3 306 0.5 100210 39
2009-12-17 14:48 51°22.024 3°0.289 12.6 307 0.5 100200 38
2009-12-17 14:49 51°21.896 3°0.15 11 305 0.4 100200 39
2009-12-17 14:50 51°21.768 3°0.004 11.7 324 0.5 100210 39
2009-12-17 14:51 51°21.637 2°59.859 11.4 308 0.5 100210 37
2009-12-17 14:52 51°21.52 2°59.705 12.6 283 0.5 100190 37
2009-12-17 14:53 51°21.433 2°59.496 10.5 307 0.5 100210 39
2009-12-17 14:54 51°21.358 2°59.271 9.3 305 0.6 100180 37
2009-12-17 14:55 51°21.279 2°59.05 12.1 307 0.5 100200 38
2009-12-17 14:56 51°21.183 2°58.854 12 304 0.6 100200 39
2009-12-17 14:57 51°21.083 2°58.661 11.7 309 0.6 100220 40
2009-12-17 14:58 51°20.983 2°58.464 10.6 305 0.6 100210 39
2009-12-17 14:59 51°20.884 2°58.265 12.2 305 0.6 100230 39
2009-12-17 15:00 51°20.785 2°58.059 12.2 303 0.6 100210 37
2009-12-17 15:01 51°20.691 2°57.858 12.1 280 0.7 100200 40
2009-12-17 15:02 51°20.593 2°57.654 11.5 305 0.6 100220 40
2009-12-17 15:03 51°20.496 2°57.447 9.8 307 0.7 100220 37
2009-12-17 15:04 51°20.398 2°57.241 11.7 308 0.7 100190 38
2009-12-17 15:05 51°20.301 2°57.036 12.3 307 0.7 100210 37
2009-12-17 15:06 51°20.206 2°56.825 11 310 0.7 100210 40
2009-12-17 15:07 51°20.108 2°56.613 11.4 305 0.7 100220 40
2009-12-17 15:08 51°20.01 2°56.402 12.4 305 0.9 100230 40
2009-12-17 15:09 51°19.91 2°56.193 11.7 306 0.9 100210 39
2009-12-17 15:10 51°19.813 2°55.982 12.1 311 0.9 100210 38
2009-12-17 15:11 51°19.713 2°55.78 11.7 305 0.8 100170 40
2009-12-17 15:12 51°19.616 2°55.575 13.4 284 0.9 100220 39
2009-12-17 15:13 51°19.515 2°55.373 11.1 306 0.8 100180 37
2009-12-17 15:14 51°19.419 2°55.164 12.6 311 0.9 100210 38
2009-12-17 15:15 51°19.323 2°54.958 13 306 0.9 100200 40
2009-12-17 15:16 51°19.227 2°54.752 12.3 305 0.8 100180 40
2009-12-17 15:17 51°19.129 2°54.547 12.4 307 0.9 100210 38
2009-12-17 15:18 51°19.025 2°54.353 11.9 321 0.9 100180 38
2009-12-17 15:19 51°18.901 2°54.198 12.6 286 0.9 100210 38
2009-12-17 15:20 51°18.765 2°54.06 11.9 307 0.8 100180 40
2009-12-17 15:21 51°18.627 2°53.918 12.4 288 0.9 100170 39
2009-12-17 15:22 51°18.497 2°53.781 12.4 303 0.9 100210 39
2009-12-17 15:23 51°18.366 2°53.636 10.9 310 0.9 100190 39
2009-12-17 15:24 51°18.242 2°53.474 11.8 307 1 100180 38
2009-12-17 15:25 51°18.116 2°53.314 13.6 306 0.9 100170 40
2009-12-17 15:26 51°17.989 2°53.159 11.8 305 0.9 100170 38
2009-12-17 15:27 51°17.861 2°53.005 10.8 305 0.9 100170 39
2009-12-17 15:28 51°17.734 2°52.851 12.3 305 0.9 100200 40
2009-12-17 15:29 51°17.613 2°52.687 12.3 304 0.9 100180 38
2009-12-17 15:30 51°17.478 2°52.56 12.7 287 0.9 100160 38
2009-12-17 15:31 51°17.324 2°52.495 13.1 327 0.9 100180 39
2009-12-17 15:32 51°17.164 2°52.508 13.8 282 0.8 100190 38
2009-12-17 15:33 51°17.007 2°52.61 11.6 338 0.9 100170 40
2009-12-17 15:34 51°16.852 2°52.73 13.1 338 0.9 100170 40
2009-12-17 15:35 51°16.701 2°52.835 14 334 0.8 100190 38
2009-12-17 15:36 51°16.542 2°52.928 14.7 335 0.8 100170 37
2009-12-17 15:37 51°16.38 2°53.013 13.5 281 0.8 100180 40
2009-12-17 15:38 51°16.217 2°53.096 14.6 337 0.8 100180 39
2009-12-17 15:39 51°16.056 2°53.172 11.8 287 0.6 100170 38
2009-12-17 15:40 51°15.894 2°53.256 12.3 339 0.7 100170 37
2009-12-17 15:41 51°15.73 2°53.343 13.1 335 0.6 100180 39
2009-12-17 15:42 51°15.566 2°53.418 13.5 334 0.6 100180 38
2009-12-17 15:43 51°15.398 2°53.494 13 339 0.6 100170 38
2009-12-17 15:44 51°15.272 2°53.683 11.2 347 0.5 100160 39
2009-12-17 15:45 51°15.173 2°53.906 11.5 346 0.5 100180 40
2009-12-17 15:46 51°15.079 2°54.093 10.3 352 0.5 100170 37
2009-12-17 15:47 51°15.003 2°54.279 12.4 350 0.3 100170 37
2009-12-17 15:48 51°14.899 2°54.484 11.5 339 0.3 100170 38
2009-12-17 15:49 51°14.772 2°54.689 11.3 339 0.3 100170 37
2009-12-17 15:50 51°14.622 2°54.852 10.4 336 0.2 100180 39
2009-12-17 15:51 51°14.459 2°54.98 12 288 0.2 100180 37
2009-12-17 15:52 51°14.326 2°55.166 8 346 0.1 100170 36
2009-12-17 15:53 51°14.213 2°55.329 8.4 285 -999 100200 36
2009-12-17 15:54 51°14.089 2°55.431 7.3 287 -0.1 100200 39
2009-12-17 15:55 51°13.976 2°55.516 6.2 286 -0.1 100210 35
2009-12-17 15:56 51°13.889 2°55.582 6.4 285 -0.2 100210 38
2009-12-17 15:57 51°13.807 2°55.653 6.5 284 -0.2 100210 37
2009-12-17 15:58 51°13.741 2°55.747 6.7 286 -0.2 100210 38
2009-12-17 15:59 51°13.698 2°55.832 4.2 281 -0.3 100220 36
2009-12-17 16:00 51°13.67 2°55.918 3.8 287 -0.3 100210 40